sat.trackr.live / text

‹ back to catalog

STARLINK-32246

NORAD 60432 · 2024-144H

PAYLOAD ACTIVE UNKNOWN

§ Identity

Operator
Country
US
Launch date
2024-08-12
Launch site
AFETR
Launch vehicle
Mass (kg)
RCS (m²)

Purposes: comms

External: N2YO · Heavens-Above · Gunter

§ Orbital elements

Epoch: 2026-09-21T15:52:29.505504Z

Period
93.85 min
Inclination
53.1639°
Eccentricity
0.0001422
Mean motion
15.34396686 rev/d
Perigee alt
461.7 km
Apogee alt
463.7 km
Semi-major
6,840.9 km
B*
3.7597e-5
RAAN
24.0044°
Arg perigee
77.1136°
Mean anomaly
283.0025°
Rev number
11,935

§ Raw data

STARLINK-322461 60432U 24144H   26264.66145261  .00000894  00000+0  37597-4 0  99962 60432  53.1639  24.0044 0001422  77.1136 283.0025 15.34396686119352

JSON: /api/v1/satellites/60432 · /tle

For live sub-satellite position, see the globe view (requires WebGL).

§ Visibility from observer

Set your observer location to see the next 7 days of passes ≥ 10°. The values pass through the URL so the page stays shareable.

No JS? Fill the form by hand. The geolocation button needs JavaScript.